Weather History for KRXE - November, 2011

Change the Weather History Date:

Wednesday, November 30, 2011

  Actual Average Record
Temperature  
Mean Temperature 33 °F 24 °F  
Max Temperature 39 °F 32 °F 60 °F (1999)
Min Temperature 26 °F 15 °F 7 °F (2009)
Degree Days  
Heating Degree Days 32 41  
Month to date heating degree days 1030 1025  
Since 1 July heating degree days 1751 2012  
Cooling Degree Days 0 0  
Month to date cooling degree days 0 0  
Year to date cooling degree days 222 208  
Moisture  
Dew Point 25 °F    
Average Humidity 73    
Maximum Humidity 92    
Minimum Humidity 53    
Precipitation  
Precipitation 0.01 in 0.03 in 0.26 in (2012)
Month to date precipitation 0.50 1.04  
Year to date precipitation 12.71 12.03  
Sea Level Pressure  
Sea Level Pressure 30.10 in    
Wind  
Wind Speed 8 mph (WNW)    
Max Wind Speed 18 mph    
Max Gust Speed 29 mph    
Visibility 9 miles    
Events Snow    
T = Trace of Precipitation, MM = Missing Value Source: NWS Daily Summary

Daily Weather History Graph

Daily Weather History Graph

Search for Another Location

Airport or City:

Trip Planner

Search our weather history database for the weather conditions in past years. The results will help you decide how hot, cold, wet, or windy it might be!

Date:

Astronomy

Nov. 30, 2011 Rise Set
Actual Time 7:40 AM MST 4:51 PM MST
Civil Twilight 7:07 AM MST 5:23 PM MST
Nautical Twilight 6:32 AM MST 5:59 PM MST
Astronomical Twilight 5:57 AM MST 6:34 PM MST
Moon 11:53 AM MST (11/30) 10:59 PM MST (11/30)
Length of Visible Light 10h 15m
Length of Day
9h 11m
Waxing Crescent, 34% of the Moon is Illuminated
Nov 30
Waxing Crescent
Dec 2
First Quarter
Dec 10
Full
Dec 17
Last Quarter
Dec 24
New

Hourly Weather History & Observations

Time (MST) Temp. Windchill Dew Point Humidity Pressure Visibility Wind Dir Wind Speed Gust Speed Precip Events Conditions
12:53 AM 30.9 °F - 28.9 °F 92% 30.11 in 9.0 mi Calm Calm - N/A   Scattered Clouds
1:53 AM 33.1 °F - 28.9 °F 85% 30.08 in 10.0 mi Calm Calm - N/A   Overcast
2:53 AM 34.0 °F - 28.9 °F 82% 30.04 in 10.0 mi Calm Calm - N/A   Overcast
3:53 AM 33.1 °F - 28.9 °F 85% 30.03 in 10.0 mi Calm Calm - N/A   Overcast
4:53 AM 32.0 °F - 28.9 °F 88% 30.01 in 10.0 mi Calm Calm - 0.00 in   Overcast
5:53 AM 30.0 °F - 28.0 °F 92% 29.99 in 10.0 mi Calm Calm - N/A   Mostly Cloudy
6:53 AM 30.9 °F 26.2 °F 28.0 °F 89% 30.01 in 10.0 mi NW 4.6 mph - N/A   Overcast
7:53 AM 32.0 °F 24.2 °F 26.1 °F 79% 29.99 in 10.0 mi South 9.2 mph - N/A   Mostly Cloudy
8:53 AM 30.9 °F 22.2 °F 26.1 °F 82% 30.03 in 10.0 mi West 10.4 mph - 0.00 in   Overcast
9:02 AM 30.2 °F 21.3 °F 24.8 °F 80% 29.97 in 1.8 mi West 10.4 mph - 0.00 in Snow Light Snow
9:34 AM 30.2 °F 23.4 °F 28.4 °F 93% 29.97 in 2.0 mi SW 6.9 mph - 0.00 in Snow Light Snow
9:45 AM 30.2 °F 25.4 °F 28.4 °F 93% 29.97 in 7.0 mi SSW 4.6 mph - 0.00 in   Overcast
9:53 AM 30.0 °F 22.4 °F 28.0 °F 92% 30.04 in 8.0 mi SSW 8.1 mph - 0.00 in   Overcast
10:53 AM 30.9 °F 22.2 °F 28.9 °F 92% 30.06 in 9.0 mi SSW 10.4 mph - 0.01 in   Overcast
11:30 AM 32.0 °F 23.0 °F 30.2 °F 93% 29.99 in 10.0 mi SW 11.5 mph - N/A   Overcast
11:38 AM 32.0 °F 23.0 °F 30.2 °F 93% 29.99 in 10.0 mi SW 11.5 mph - N/A   Overcast
11:53 AM 32.0 °F 23.6 °F 30.0 °F 92% 30.06 in 10.0 mi SW 10.4 mph - N/A   Overcast
12:53 PM 33.1 °F 25.5 °F 30.9 °F 92% 30.06 in 10.0 mi SSW 9.2 mph - N/A   Overcast
1:53 PM 37.9 °F - 25.0 °F 60% 30.04 in 10.0 mi Calm Calm - N/A   Overcast
2:53 PM 37.9 °F - 27.0 °F 65% 30.06 in 10.0 mi Calm Calm - N/A   Overcast
3:53 PM 37.9 °F 32.7 °F 23.0 °F 55% 30.10 in 10.0 mi North 6.9 mph - N/A   Overcast
4:53 PM 34.0 °F 26.0 °F 21.0 °F 59% 30.16 in 10.0 mi North 10.4 mph - N/A   Scattered Clouds
5:53 PM 32.0 °F 22.5 °F 18.0 °F 56% 30.22 in 10.0 mi NNE 12.7 mph 21.9 mph N/A   Clear
6:53 PM 30.9 °F 19.4 °F 15.1 °F 52% 30.26 in 10.0 mi North 17.3 mph 25.3 mph N/A   Clear
7:53 PM 30.0 °F 19.5 °F 16.0 °F 56% 30.30 in 10.0 mi North 13.8 mph 21.9 mph N/A   Clear
8:53 PM 28.0 °F 18.1 °F 16.0 °F 61% 30.34 in 10.0 mi North 11.5 mph - N/A   Partly Cloudy
9:53 PM 28.0 °F 17.0 °F 14.0 °F 56% 30.39 in 10.0 mi North 13.8 mph 21.9 mph N/A   Clear
10:53 PM 27.0 °F 14.3 °F 12.0 °F 53% 30.42 in 10.0 mi North 17.3 mph 24.2 mph N/A   Clear